Weather in Novotroitskoye

Russia / Kirov Oblast     58°27′00″N   47°05′14″E
temp.,
°C
wind,
m/s
gust,
m/s
humid.,
%
clouds,
%
prec.,
mm/h
press.,
hPa
HPBL,
m
19 june, sat
sat1900:00+15wsw41376100 0.0 1022314
03:00+15wsw4128698 0.0 1021319
06:00+18wsw4117876 0.0 1020379
09:00+24w59545 0.0 1019958
12:00+27w710390 0.0 10172026
15:00+29wnw610380 0.0 10172079
18:00+26wnw510500 0.0 10171434
21:00+20w312744 0.0 1018305
20 june, sun
sun2000:00+18wnw210760 0.0 1019233
03:00+16nnw11890 0.0 102012
06:00+20ne23755 0.0 1021268
09:00+24ene21560 0.0 1021874
12:00+28sw134825 0.0 10211665
15:00+24e2263100 0.0 102076
18:00+24ese3665100 0.0 1019323
21:00+19se398087 0.0 1019177
21 june, mon
mon2100:00+18sse229553 0.0 101926
03:00+18w229285 0.0 102031
06:00+22w247615 0.0 1020199
09:00+27w35534 0.0 1020821
12:00+30w454196 0.0 10192022
15:00+31wnw3535100 0.0 10192537
18:00+28wsw265158 0.0 1018229
21:00+23wsw366881 0.0 1019103
22 june, tue
tue2200:00+20w357211 0.0 102094
03:00+19wnw23785 0.0 102058
06:00+23w24745 0.0 1021181
09:00+26w356140 0.0 1021498
12:00+31w343835 0.0 10202574
15:00+32w243461 0.0 10192600
18:00+28w14607 0.0 1019259
21:00+19nw118614 0.3 102015
23 june, wed
wed2300:00+19wsw118230 0.4 102011
03:00+18wnw23966 0.4 102151
06:00+21wnw23815 0.0 1021155
09:00+27wnw23575 0.0 1021633
12:00+31wnw234210 0.0 10201818
15:00+31wnw2338100 0.0 10192464
18:00+26nw376275 0.0 1018177
21:00+22ene227267 0.1 101949